Location: Izdebno
(52.6670°N, 16.2170°E)
Time: 13:33:28
(UTC+02:00)

A-11 Canister half - Pass Details

Date: 11 February 2023
Orbit: 1526 x 1682 km, 47.3° (Epoch: 26 March)

Event Time Altitude Azimuth Distance (km) Brightness Sun altitude
Rises 09:11:16 0° 283° (WNW) 4,684 11.0 13.1°
Reaches altitude 10° 09:14:30 10° 276° (W) 3,707 10.6 13.4°
Maximum altitude 09:22:56 40° 212° (SSW) 2,147 10.2 14.3°
Drops below altitude 10° 09:31:34 10° 147° (SSE) 3,782 13.7 15.1°
Sets 09:34:55 0° 140° (SE) 4,787 13.5 15.5°
